Simultaneous Nadir Overpasses (SNOs) Predictions

Prediction of SNOs between AQUA and GOES-15 Satellite Orbit:

Table of predicted SNOs for the next 14.0 days since TLE Epoch: 10/30/2015
Index Date Time (AQUA) AQUA Lat,Lon GOES-15 Lat,Lon Distance(km) Time Diff (sec)
1 10/31/2015 10:38:00 0.23,-135.61 0.11,-135.01 68.42 80
2 11/02/2015 10:25:49 -0.42,-132.66 0.11,-135.08 275.00 80
3 11/02/2015 22:47:13 -0.71,-137.85 -0.09,-135.08 316.16 80
4 11/04/2015 22:35:02 -0.04,-134.90 -0.09,-135.14 27.08 80
5 11/06/2015 22:22:50 0.58,-131.94 -0.09,-135.20 370.22 80
6 11/07/2015 10:44:06 0.47,-137.11 0.07,-135.24 212.61 80
7 11/09/2015 10:31:54 -0.17,-134.15 0.07,-135.29 129.95 80
8 11/09/2015 22:53:18 -0.94,-139.34 -0.05,-135.28 462.20 80
9 11/11/2015 10:19:42 -0.82,-131.19 0.08,-135.34 471.99 80
10 11/11/2015 22:41:06 -0.28,-136.38 -0.06,-135.33 120.19 80




NCC Satellite Simultaneous Nadir Overpasses (SNOs) Prediction Service
